Date String (YYYY-MM-DD hh:mm:ss) UTC,Instrument flags,absolute air pressure of the measurement (hPa),sample flow rate (lpm),inlet stack bypass flow (lpm),air temperature of the measurement (°C),ambient temperature measured by the external sensor (°C),aerosol sample conditioner tube jacket temperature (°C),OPC LED temperature (°C),internal box temperature (°C),relative humidity of the measurement (%),span deviation,mass concentration of particles derived from Lorenz-Mie calculation of OPC scattering (μg/m³),mass concentration of particles derived from Lorenz-Mie calculation of OPC scattering (μg/m³),mass concentration of particles derived from Lorenz-Mie calculation of OPC scattering (μg/m³)
DateTimeUTC,F1_M11,P_M11,Q1_M11,Q2_M11,T1_M11,T2_M11,T3_M11,T4_M11,T5_M11,U1_M11,ZSPAN_M11,X0_M11,X2_M11,X1_M11
2024-05-28 12:00:00,SystemResetWarning,0835.6,5.01,000.00,029.5,028.7,000.0,038.0,031.2,014.5,0000.0,0009.17,0003.65,0003.05
2024-05-28 12:01:00,SystemResetWarning,0835.6,5.01,000.00,029.5,028.7,000.0,037.9,031.2,014.4,0000.0,0009.89,0003.65,0003.04
2024-05-28 12:02:00,SystemResetWarning,0835.6,5.00,000.00,029.5,028.7,000.0,037.9,031.2,014.4,0000.0,0010.43,0003.63,0003.03
2024-05-28 12:03:00,SystemResetWarning,0835.6,5.00,000.00,029.5,028.7,000.0,037.9,031.2,014.4,0000.0,0011.08,0003.64,0003.04
2024-05-28 12:04:00,SystemResetWarning,0835.6,4.99,000.00,029.5,028.7,000.0,037.9,031.2,014.5,0000.0,0011.73,0003.66,0003.04
2024-05-28 12:05:00,SystemResetWarning,0835.6,4.99,000.00,029.5,028.7,000.0,037.9,031.2,014.6,0000.0,0012.38,0003.63,0003.07
2024-05-28 12:06:00,SystemResetWarning,0835.6,5.00,000.00,029.5,028.7,000.0,037.9,031.2,014.6,0000.0,0012.28,0003.58,0003.06
2024-05-28 12:07:00,SystemResetWarning,0835.6,5.01,000.00,029.5,028.7,000.0,037.9,031.2,014.5,0000.0,0012.30,0003.60,0003.06
2024-05-28 12:08:00,SystemResetWarning,0835.6,5.00,000.00,029.5,028.7,000.0,037.9,031.2,014.6,0000.0,0012.32,0003.61,0003.07
2024-05-28 12:09:00,SystemResetWarning,0835.6,5.00,000.00,029.5,028.7,000.0,037.9,031.2,014.8,0000.0,0012.32,0003.66,0003.07
2024-05-28 12:10:00,SystemResetWarning,0835.6,4.99,000.00,029.5,028.7,000.0,037.9,031.2,014.8,0000.0,0012.46,0003.64,0003.05
2024-05-28 12:11:00,SystemResetWarning,0835.6,4.99,000.00,029.5,028.7,000.0,037.9,031.2,014.6,0000.0,0011.52,0003.62,0003.04
2024-05-28 12:12:00,SystemResetWarning,0835.6,5.00,000.00,029.5,028.7,000.0,037.9,031.2,014.6,0000.0,0010.56,0003.58,0003.03
2024-05-28 12:13:00,SystemResetWarning,0835.6,5.00,000.00,029.5,028.7,000.0,037.9,031.2,014.6,0000.0,0010.72,0003.57,0003.03
2024-05-28 12:14:00,SystemResetWarning,0835.6,5.00,000.00,029.5,028.7,000.0,037.9,031.2,014.7,0000.0,0010.98,0003.60,0003.04
2024-05-28 12:15:00,SystemResetWarning,0835.6,5.01,000.00,029.5,028.7,000.0,037.9,031.2,014.7,0000.0,0010.33,0003.59,0003.03
2024-05-28 12:16:00,SystemResetWarning,0835.6,5.01,000.00,029.5,028.7,000.0,037.9,031.2,014.7,0000.0,0009.85,0003.59,0003.01
2024-05-28 12:17:00,SystemResetWarning,0835.6,4.99,000.00,029.5,028.7,000.0,037.9,031.2,014.7,0000.0,0010.80,0003.63,0003.01
2024-05-28 12:18:00,SystemResetWarning,0835.6,4.99,000.00,029.5,028.7,000.0,037.9,031.2,014.7,0000.0,0011.56,0003.65,0003.02
2024-05-28 12:19:00,SystemResetWarning,0835.8,5.02,000.00,029.5,028.7,000.0,037.9,031.2,014.7,0000.0,0011.40,0003.65,0003.01
2024-05-28 12:20:00,SystemResetWarning,0835.6,5.00,000.00,029.5,028.7,000.0,037.9,031.2,014.7,0000.0,0011.26,0003.63,0003.00
2024-05-28 12:21:00,SystemResetWarning,0835.6,4.99,000.00,029.5,028.7,000.0,037.9,031.2,014.8,0000.0,0010.98,0003.69,0003.02
2024-05-28 12:22:00,SystemResetWarning,0835.6,4.99,000.00,029.5,028.7,000.0,037.9,031.2,014.8,0000.0,0011.33,0003.73,0003.03
2024-05-28 12:23:00,SystemResetWarning,0835.6,5.01,000.00,029.5,028.7,000.0,037.9,031.1,014.9,0000.0,0011.47,0003.72,0003.01
2024-05-28 12:24:00,SystemResetWarning,0835.6,5.01,000.00,029.5,028.7,000.0,037.9,031.2,015.0,0000.0,0010.94,0003.70,0003.00
2024-05-28 12:25:00,SystemResetWarning,0835.6,5.00,000.00,029.5,028.7,000.0,037.9,031.2,015.0,0000.0,0010.66,0003.67,0002.97
2024-05-28 12:26:00,SystemResetWarning,0835.6,5.00,000.00,029.5,028.7,000.0,037.9,031.2,015.0,0000.0,0011.62,0003.65,0002.96
2024-05-28 12:27:00,SystemResetWarning,0835.6,5.00,000.00,029.5,028.7,000.0,037.9,031.1,015.0,0000.0,0011.31,0003.63,0002.95
2024-05-28 12:28:00,SystemResetWarning,0835.6,5.00,000.00,029.5,028.7,000.0,037.9,031.2,015.0,0000.0,0010.37,0003.61,0002.93
2024-05-28 12:29:00,SystemResetWarning,0835.6,5.00,000.00,029.5,028.7,000.0,037.9,031.2,015.0,0000.0,0009.55,0003.56,0002.90
2024-05-28 12:30:00,SystemResetWarning,0835.6,5.00,000.00,029.5,028.7,000.0,037.9,031.2,014.9,0000.0,0009.56,0003.56,0002.90
2024-05-28 12:31:00,SystemResetWarning,0835.6,5.00,000.00,029.5,028.7,000.0,037.9,031.1,014.9,0000.0,0009.53,0003.55,0002.90
2024-05-28 12:32:00,SystemResetWarning,0835.6,5.00,000.00,029.5,028.7,000.0,037.8,031.1,014.8,0000.0,0009.34,0003.49,0002.89
2024-05-28 12:33:00,SystemResetWarning,0835.6,5.00,000.00,029.5,028.7,000.0,037.8,031.1,014.8,0000.0,0009.18,0003.48,0002.90
2024-05-28 12:34:00,SystemResetWarning,0835.6,5.00,000.00,029.5,028.7,000.0,037.9,031.2,014.9,0000.0,0008.88,0003.48,0002.91
2024-05-28 12:35:00,SystemResetWarning,0835.6,5.00,000.00,029.5,028.7,000.0,037.9,031.2,014.9,0000.0,0008.72,0003.53,0002.92
2024-05-28 12:36:00,SystemResetWarning,0835.6,5.00,000.00,029.5,028.7,000.0,037.9,031.1,014.9,0000.0,0008.21,0003.56,0002.94
2024-05-28 12:37:00,SystemResetWarning,0835.5,5.00,000.00,029.5,028.7,000.0,037.9,031.2,015.4,0000.0,0007.28,0003.59,0002.94
2024-05-28 12:38:00,SystemResetWarning,0835.6,5.00,000.00,029.5,028.7,000.0,037.9,031.2,016.1,0000.0,0007.23,0003.59,0002.94
2024-05-28 12:39:00,SystemResetWarning,0835.6,5.00,000.00,029.5,028.7,000.0,037.9,031.2,015.5,0000.0,0007.73,0003.61,0002.96
2024-05-28 12:40:00,SystemResetWarning,0835.5,5.00,000.00,029.5,028.7,000.0,037.9,031.2,015.2,0000.0,0007.91,0003.64,0002.97
2024-05-28 12:41:00,SystemResetWarning,0835.5,5.00,000.00,029.5,028.7,000.0,037.9,031.2,015.8,0000.0,0008.03,0003.63,0002.96
2024-05-28 12:42:00,SystemResetWarning,0835.5,5.00,000.00,029.5,028.7,000.0,037.9,031.2,016.6,0000.0,0008.06,0003.64,0002.94
2024-05-28 12:43:00,SystemResetWarning,0835.5,5.01,000.00,029.5,028.7,000.0,037.9,031.2,016.9,0000.0,0008.39,0003.67,0002.94
2024-05-28 12:44:00,SystemResetWarning,0835.6,4.99,000.00,029.5,028.7,000.0,037.9,031.2,016.1,0000.0,0008.66,0003.66,0002.91
2024-05-28 12:45:00,SystemResetWarning,0835.5,5.00,000.00,029.5,028.7,000.0,037.9,031.2,016.0,0000.0,0008.62,0003.63,0002.89
2024-05-28 12:46:00,SystemResetWarning,0835.5,4.99,000.00,029.5,028.8,000.0,037.9,031.2,016.0,0000.0,0008.41,0003.59,0002.88
2024-05-28 12:47:00,SystemResetWarning,0835.5,5.00,000.00,029.5,028.8,000.0,037.9,031.2,016.8,0000.0,0008.38,0003.56,0002.86
2024-05-28 12:48:00,SystemResetWarning,0835.5,5.00,000.00,029.5,028.8,000.0,037.9,031.2,017.0,0000.0,0008.85,0003.55,0002.86
2024-05-28 12:49:00,SystemResetWarning,0835.5,5.00,000.00,029.5,028.8,000.0,037.9,031.2,016.6,0000.0,0008.90,0003.56,0002.86
2024-05-28 12:50:00,SystemResetWarning,0835.5,5.00,000.00,029.5,028.8,000.0,037.9,031.2,016.0,0000.0,0008.41,0003.53,0002.84
2024-05-28 12:51:00,SystemResetWarning,0835.5,5.01,000.00,029.5,028.8,000.0,037.9,031.2,016.3,0000.0,0008.18,0003.49,0002.82
2024-05-28 12:52:00,SystemResetWarning,0835.5,5.00,000.00,029.5,028.8,000.0,037.9,031.2,016.5,0000.0,0008.50,0003.49,0002.83
2024-05-28 12:53:00,SystemResetWarning,0835.5,5.00,000.00,029.5,028.8,000.0,037.9,031.2,016.5,0000.0,0008.71,0003.48,0002.84
2024-05-28 12:54:00,SystemResetWarning,0835.5,5.01,000.00,029.5,028.8,000.0,037.9,031.2,016.4,0000.0,0008.35,0003.45,0002.84
2024-05-28 12:55:00,SystemResetWarning,0835.5,4.99,000.00,029.5,028.8,000.0,037.9,031.2,015.8,0000.0,0007.97,0003.44,0002.86
2024-05-28 12:56:00,SystemResetWarning,0835.5,5.00,000.00,029.6,028.8,000.0,037.9,031.2,016.2,0000.0,0007.98,0003.48,0002.87
2024-05-28 12:57:00,SystemResetWarning,0835.5,4.99,000.00,029.6,028.8,000.0,037.9,031.2,016.2,0000.0,0008.97,0003.47,0002.86
2024-05-28 12:58:00,SystemResetWarning,0835.5,5.00,000.00,029.6,028.8,000.0,037.9,031.2,016.0,0000.0,0009.32,0003.48,0002.84
2024-05-28 12:59:00,SystemResetWarning,0835.5,5.01,000.00,029.6,028.8,000.0,037.9,031.2,015.8,0000.0,0008.77,0003.46,0002.83
